Retour au catalogue

CZ-6A DEB

ActifPO
NORAD 64644·DEBRIS·🇨🇳 China

Lancé Aug 6, 2024 depuis Taiyuan Satellite Launch Center

Loading…

Prochains Passages (prochaines 24 heures)

TLE

FraisSource: Space-Track

Époque: Sep 13, 2026, 07:12 UTC

1 64644U 24140AEJ 26256.30019655  .00000045  00000-0  17134-4 0  9994
2 64644  89.0212 268.2427 0078543 280.8201  78.4151 14.11544558102116

Suivez CZ-6A DEB en temps réel avec AllMySat

Download on the App Store